Santa Ana, CA

1:01 PM PST on November 22, 2017 (GMT -0800)
John Wayne-Orange County

Weather History for KSNA - April, 2013

Change the Weather History Date:

Thursday, April 25, 2013

  Actual Average Record
Temperature  
Mean Temperature 65 °F 62 °F  
Max Temperature 71 °F 70 °F 84 °F (2004)
Min Temperature 59 °F 55 °F 53 °F (2008)
Degree Days  
Heating Degree Days 0 3  
Month to date heating degree days 61 106  
Since 1 July heating degree days 1081 1193  
Cooling Degree Days 0 1  
Month to date cooling degree days 3 7  
Year to date cooling degree days 7 22  
Growing Degree Days 14 (Base 50)    
Moisture  
Dew Point 49 °F    
Average Humidity 58    
Maximum Humidity 75    
Minimum Humidity 40    
Precipitation  
Precipitation 0.00 in 0.03 in 0.18 in (2012)
Month to date precipitation 0.01 0.75  
Year to date precipitation 1.68 8.51  
Since 1 July precipitation 4.70  
Snow  
Snow 0.00 in - - ()
Month to date snowfall 0.0  
Year to date snowfall 0.0  
Snow Depth 0.00 in    
Sea Level Pressure  
Sea Level Pressure 30.04 in    
Wind  
Wind Speed 4 mph (SW)    
Max Wind Speed 13 mph    
Max Gust Speed 21 mph    
Visibility 10 miles    
Events      
T = Trace of Precipitation, MM = Missing Value Source: NWS Daily Summary

Daily Weather History Graph

Daily Weather History Graph

Search for Another Location

Airport or City:

Trip Planner

Search our weather history database for the weather conditions in past years. The results will help you decide how hot, cold, wet, or windy it might be!

Date:

Astronomy

Apr. 25, 2013 Rise Set
Actual Time 6:08 AM PDT 7:30 PM PDT
Civil Twilight 5:42 AM PDT 7:56 PM PDT
Nautical Twilight 5:11 AM PDT 8:28 PM PDT
Astronomical Twilight 4:38 AM PDT 9:00 PM PDT
Moon 7:47 PM PDT (4/25) 5:55 AM PDT (4/25)
Length of Visible Light 14h 14m
Length of Day
13h 21m
Full, 100% of the Moon is Illuminated
Apr 25
Full
Apr 25
Full
May 2
Last Quarter
May 9
New
May 17
First Quarter

Hourly Weather History & Observations

Time (PDT) Temp. Dew Point Humidity Pressure Visibility Wind Dir Wind Speed Gust Speed Precip Events Conditions
12:53 AM 60.1 °F 50.0 °F 69% 29.98 in 10.0 mi Calm Calm - N/A   Overcast
1:53 AM 60.1 °F 50.0 °F 69% 29.97 in 10.0 mi Calm Calm - N/A   Overcast
2:06 AM 60.8 °F 50.0 °F 68% 29.97 in 10.0 mi Calm Calm - N/A   Overcast
2:53 AM 60.1 °F 50.0 °F 69% 29.97 in 10.0 mi Calm Calm - N/A   Overcast
4:25 AM 59.0 °F 50.0 °F 72% 29.98 in 10.0 mi SSW 3.5 mph - N/A   Overcast
4:53 AM 59.0 °F 50.0 °F 72% 29.99 in 10.0 mi SSW 3.5 mph - N/A   Overcast
5:53 AM 59.0 °F 51.1 °F 75% 30.00 in 10.0 mi SSW 3.5 mph - N/A   Mostly Cloudy
6:53 AM 60.1 °F 51.1 °F 72% 30.02 in 10.0 mi South 3.5 mph - N/A   Mostly Cloudy
7:53 AM 61.0 °F 51.1 °F 70% 30.04 in 10.0 mi Calm Calm - N/A   Mostly Cloudy
8:53 AM 63.0 °F 50.0 °F 63% 30.05 in 10.0 mi Calm Calm - N/A   Overcast
8:59 AM 62.6 °F 48.2 °F 59% 30.05 in 10.0 mi Calm Calm - N/A   Mostly Cloudy
9:53 AM 64.0 °F 46.9 °F 54% 30.07 in 10.0 mi Variable 3.5 mph - N/A   Mostly Cloudy
10:53 AM 64.9 °F 48.9 °F 56% 30.08 in 10.0 mi Variable 5.8 mph - N/A   Scattered Clouds
11:53 AM 64.9 °F 48.9 °F 56% 30.08 in 10.0 mi WSW 5.8 mph - N/A   Mostly Cloudy
12:53 PM 70.0 °F 46.9 °F 44% 30.06 in 10.0 mi South 6.9 mph - N/A   Scattered Clouds
1:53 PM 70.0 °F 45.0 °F 41% 30.06 in 10.0 mi SSW 10.4 mph 17.3 mph N/A   Scattered Clouds
2:53 PM 70.0 °F 46.9 °F 44% 30.05 in 10.0 mi SW 6.9 mph - N/A   Scattered Clouds
3:53 PM 69.1 °F 46.9 °F 45% 30.04 in 10.0 mi WSW 8.1 mph - N/A   Scattered Clouds
4:53 PM 69.1 °F 48.0 °F 47% 30.03 in 10.0 mi WSW 10.4 mph - N/A   Clear
5:53 PM 68.0 °F 48.9 °F 50% 30.04 in 10.0 mi West 6.9 mph - N/A   Clear
6:53 PM 64.9 °F 50.0 °F 58% 30.04 in 10.0 mi WSW 5.8 mph - N/A   Clear
7:53 PM 63.0 °F 50.0 °F 63% 30.06 in 10.0 mi West 5.8 mph - N/A   Clear
8:53 PM 63.0 °F 50.0 °F 63% 30.08 in 10.0 mi Calm Calm - N/A   Clear
9:53 PM 63.0 °F 51.1 °F 65% 30.10 in 10.0 mi Calm Calm - N/A   Clear
10:53 PM 62.1 °F 48.9 °F 62% 30.11 in 10.0 mi Calm Calm - N/A   Clear
11:53 PM 61.0 °F 52.0 °F 72% 30.12 in 10.0 mi WSW 3.5 mph - N/A   Clear